Location: ?sanag?dem
(16.9522°N, 81.1036°E)
Time: 00:03:34
(UTC+00:00)

Envisat - Pass Details

Date: 15 August 2024
Orbit: 762 x 764 km, 98.3° (Epoch: 16 September)

Event Time Altitude Azimuth Distance (km) Brightness Sun altitude
Rises 22:08:57 0° 356° (N) 3,218 6.5 -30.0°
Reaches altitude 10° 22:11:27 10° 347° (NNW) 2,291 5.6 -29.5°
Enters shadow 22:12:35 16° 339° (NNW) 1,911 5.1 -29.2°
